Cloud_Cover
2 5 5 5 4 0 0 0 0 0 0 0 0 0 0 0 0 4 13 14 2 0 0 3 5 5 5 5 4 0 11 90 4 5 5 1 20 4 0 49 0 3 3 1 0
5 2 5 0 0 0 0 0 0 0 0 0 0 0 0 3 0 0 1 5 5 1 0 2 4 5 5 2 0 0 72 97 0 0 2 2 2 96 2 8 98 53 4 0 0
4 3 0 0 0 0 0 0 0 0 0 0 0 0 0 4 0 0 0 0 0 2 4 2 0 0 0 0 0 0 100 5 0 0 0 0 4 5 5 92 44 25 41 0 0
0 0 0 0 0 0 0 0 0 0 0 0 0 0 0 0 0 0 0 0 0 0 0 0 0 0 0 0 0 0 0 0 0 0 0 0 4 5 5 23 100 99 97 10 0
0 0 0 0 0 0 0 0 0 0 0 0 0 0 1 0 0 0 0 0 0 0 0 0 0 0 0 0 0 0 5 0 0 0 0 0 0 5 47 2 97 0 99 10 0
0 0 0 0 0 0 0 0 0 0 0 0 0 35 0 0 0 0 0 0 0 0 0 0 0 0 0 0 0 0 0 0 0 0 0 0 5 5 70 4 9 18 26 82 14
0 0 2 0 0 0 0 0 0 0 0 0 0 0 0 0 0 0 0 0 0 0 0 0 0 0 0 0 0 0 0 0 0 0 0 0 1 89 2 0 0 43 92 98 74
0 1 4 0 0 0 0 0 0 0 0 0 0 0 0 0 0 0 0 0 0 0 0 0 0 0 0 0 0 0 0 7 45 0 0 0 25 10 0 0 0 2 100 100 100
4 3 0 0 0 0 0 0 0 0 0 1 0 0 0 0 0 0 0 0 0 0 0 0 0 0 0 0 0 0 0 89 88 0 0 0 0 32 0 0 0 0 11 100 100
1 0 0 0 0 0 0 11 0 57 18 0 0 0 0 0 0 0 0 0 0 0 0 0 0 0 0 1 24 62 4 3 2 36 0 2 5 4 0 0 0 0 0 21 62
5 0 0 0 0 0 49 0 0 0 0 0 0 0 0 0 0 0 0 0 0 0 0 0 1 20 0 0 0 0 0 0 5 0 0 0 0 5 0 0 0 0 0 0 4
5 3 5 0 0 0 12 0 0 0 0 0 0 0 0 0 0 0 0 0 0 0 0 8 3 0 0 0 0 0 3 53 4 3 0 3 5 29 0 0 0 0 1 0 28
5 0 0 0 0 3 0 0 0 0 0 0 0 0 0 0 0 0 0 0 0 0 0 22 12 0 0 0 0 60 1 0 0 0 0 5 4 77 1 0 0 0 0 19 49
5 5 5 4 5 3 0 0 0 0 3 0 0 0 0 0 0 0 0 0 0 3 0 3 0 0 0 4 0 83 1 0 0 0 0 0 3 91 49 22 4 0 0 18 48
5 5 5 83 5 4 0 0 0 0 92 0 0 0 0 0 0 0 0 0 0 0 1 61 0 2 5 3 0 4 0 0 0 0 3 70 100 100 100 89 100 0 37 89 98
5 5 17 4 5 5 4 1 0 0 33 0 0 0 0 0 0 0 0 0 0 0 0 1 0 0 0 0 1 0 2 0 0 20 100 100 23 78 25 98 5 75 98 100 100
1 5 32 0 0 0 0 0 0 52 6 0 0 0 0 0 0 0 0 0 13 4 100 58 94 13 0 0 15 4 0 0 15 4 42 60 1 42 23 66 2 19 94 100 100
5 34 5 5 0 2 0 0 0 29 4 0 0 0 0 2 0 0 0 7 4 0 7 100 100 58 81 0 0 0 0 29 34 0 0 2 93 60 80 37 100 89 92 100 100
30 5 2 5 5 5 5 4 2 5 1 0 0 1 17 3 0 1 5 61 1 0 1 11 47 95 0 0 0 0 0 1 1 51 100 99 94 6 83 75 100 100 76 98 100
5 5 5 5 5 5 4 5 4 2 0 0 1 5 85 100 27 71 100 4 0 0 0 42 0 4 5 0 63 5 3 5 62 17 15 93 100 5 35 42 72 100 99 96 83
10 5 5 5 5 5 5 5 0 0 0 0 5 5 2 8 4 85 80 39 0 0 1 4 2 0 0 87 3 0 4 18 4 47 96 66 96 2 6 14 3 73 55 66 100
12 5 5 5 5 5 0 0 1 1 4 1 0 0 5 14 5 88 81 56 5 5 2 4 0 0 3 3 0 4 36 81 98 47 28 5 91 5 5 5 5 64 85 90 100
7 5 5 5 5 2 0 0 0 0 0 1 0 0 1 0 4 3 8 4 0 0 0 1 0 2 0 20 91 45 86 53 78 22 56 90 100 100 100 86 69 100 96 89 100
5 5 5 5 2 0 0 0 0 0 0 0 0 0 0 0 3 3 47 13 0 0 0 0 0 5 21 99 17 90 100 100 100 96 86 100 92 54 67 32 69 74 60 85 44
5 5 5 5 5 0 0 0 0 0 0 3 2 0 3 53 99 100 99 72 24 3 14 5 5 5 5 7 5 95 100 100 100 100 100 100 74 45 90 54 74 100 100 100 100
5 5 5 5 5 3 0 0 0 4 0 6 2 5 1 6 72 97 100 90 100 92 52 5 5 5 5 16 100 100 97 78 95 100 87 100 72 81 88 98 100 100 85 47 11
6 5 5 5 2 5 15 6 5 0 1 2 2 5 82 5 0 0 0 2 0 0 0 0 0 2 5 57 98 99 63 85 99 16 63 100 100 100 100 100 100 56 83 97 8